This is the latest recevied weather packets stored in our database for station/object WA1NHP. If no packets are shown the sender has not sent any weather packets the latest 10 day(s).
| Time | Temp. | Humidity | Pressure | Rain* | Wind** | Luminosity | Snow |
|---|---|---|---|---|---|---|---|
| 1777637644 | 6.11° C | 80% | 1023.9 hPa | 0 mm | - | 130 W/m² | - |
| 1777637044 | 5.56° C | 79% | 1023.9 hPa | 0 mm | - | 127 W/m² | - |
| 1777636444 | 5.56° C | 79% | 1023.9 hPa | 0 mm | - | 114 W/m² | - |
| 1777635843 | 5.56° C | 79% | 1023.9 hPa | 0 mm | - | 91 W/m² | - |
| 1777635244 | 5.56° C | 79% | 1023.9 hPa | 0 mm | - | 107 W/m² | - |
| 1777634643 | 6.11° C | 79% | 1023.9 hPa | 0 mm | - | 86 W/m² | - |
| 1777634044 | 5.56° C | 79% | 1023.9 hPa | 0 mm | - | 109 W/m² | - |
| 1777633444 | 5.56° C | 81% | 1023.9 hPa | 0 mm | - | 107 W/m² | - |
| 1777632843 | 5° C | 83% | 1023.9 hPa | 0 mm | - | 86 W/m² | - |
| 1777632244 | 5° C | 84% | 1023.9 hPa | 0 mm | - | 53 W/m² | - |
| 1777631643 | 5° C | 85% | 1023.9 hPa | 0 mm | - | 25 W/m² | - |
| 1777631044 | 5° C | 86% | 1023.9 hPa | 0 mm | - | 28 W/m² | - |
| 1777630444 | 4.44° C | 86% | 1023.9 hPa | 0 mm | - | 25 W/m² | - |
| 1777629844 | 4.44° C | 86% | 1023.9 hPa | 0 mm | - | 12 W/m² | - |
| 1777629244 | 4.44° C | 87% | 1023.9 hPa | 0 mm | - | 7 W/m² | - |
| 1777628644 | 4.44° C | 87% | 1023.9 hPa | 0 mm | - | 0 W/m² | - |
| 1777628044 | 4.44° C | 88% | 1023.9 hPa | 0 mm | - | 0 W/m² | - |
| 1777627444 | 4.44° C | 88% | 1023.9 hPa | 0 mm | - | 0 W/m² | - |
| 1777626844 | 4.44° C | 88% | 1023.9 hPa | 0 mm | - | 0 W/m² | - |
| 1777626244 | 3.89° C | 89% | 1023.9 hPa | 0 mm | - | 0 W/m² | - |
| 1777625644 | 3.89° C | 88% | 1023.9 hPa | 0 mm | - | 0 W/m² | - |
| 1777625044 | 3.89° C | 88% | 1023.9 hPa | 0 mm | - | 0 W/m² | - |
| 1777624444 | 3.89° C | 88% | 1023.9 hPa | 0 mm | - | 0 W/m² | - |
| 1777623844 | 4.44° C | 88% | 1023.9 hPa | 0 mm | - | 0 W/m² | - |
| 1777623244 | 4.44° C | 88% | 1023.9 hPa | 0 mm | - | 0 W/m² | - |
* Rain latest hour (hover to see other rain measurements)
** Current wind speed in m/s (hover to see current wind gust speed)